TimeEST,TemperatureF,Dew PointF,Humidity,Sea Level PressureIn,VisibilityMPH,Wind Direction,Wind SpeedMPH,Gust SpeedMPH,PrecipitationIn,Events,Conditions,WindDirDegrees,DateUTC
12:15 AM,39.2,37.4,93,30.27,10.0,North,6.9,-,N/A,,Clear,10,2013-02-07 05:15:00
12:35 AM,41.0,37.4,87,30.29,10.0,North,4.6,-,N/A,,Clear,350,2013-02-07 05:35:00
12:55 AM,37.4,35.6,93,30.28,8.0,North,8.1,-,N/A,,Clear,10,2013-02-07 05:55:00
1:35 AM,39.2,35.6,87,30.26,7.0,North,8.1,-,N/A,,Clear,10,2013-02-07 06:35:00
1:55 AM,39.2,37.4,93,30.26,7.0,North,9.2,-,N/A,,Clear,10,2013-02-07 06:55:00
2:15 AM,39.2,37.4,93,30.26,7.0,North,8.1,-,N/A,,Clear,10,2013-02-07 07:15:00
2:35 AM,39.2,37.4,93,30.26,6.0,North,8.1,-,N/A,,Clear,10,2013-02-07 07:35:00
2:55 AM,39.2,35.6,87,30.26,6.0,NNE,8.1,-,N/A,,Clear,20,2013-02-07 07:55:00
3:15 AM,39.2,37.4,93,30.26,6.0,North,8.1,-,N/A,,Clear,10,2013-02-07 08:15:00
3:35 AM,39.2,37.4,93,30.26,5.0,NNE,9.2,-,N/A,,Clear,20,2013-02-07 08:35:00
3:55 AM,39.2,37.4,93,30.25,6.0,NNE,9.2,-,N/A,,Clear,20,2013-02-07 08:55:00
4:15 AM,39.2,37.4,93,30.26,6.0,North,9.2,-,N/A,,Clear,10,2013-02-07 09:15:00
4:35 AM,39.2,37.4,93,30.26,5.0,NNE,9.2,-,N/A,,Clear,20,2013-02-07 09:35:00
4:55 AM,39.2,37.4,93,30.26,5.0,NNE,8.1,-,N/A,,Clear,20,2013-02-07 09:55:00
5:15 AM,39.2,37.4,93,30.27,5.0,NNE,8.1,-,N/A,,Clear,20,2013-02-07 10:15:00
5:35 AM,39.2,37.4,93,30.27,5.0,North,8.1,-,N/A,,Clear,10,2013-02-07 10:35:00
5:55 AM,39.2,35.6,87,30.27,5.0,NNE,6.9,-,N/A,,Clear,20,2013-02-07 10:55:00
6:15 AM,39.2,37.4,93,30.27,5.0,NNE,6.9,-,N/A,,Clear,20,2013-02-07 11:15:00
6:35 AM,39.2,35.6,87,30.27,5.0,North,6.9,-,N/A,,Clear,10,2013-02-07 11:35:00
6:55 AM,39.2,37.4,93,30.27,5.0,North,9.2,-,N/A,,Clear,10,2013-02-07 11:55:00
7:15 AM,39.2,37.4,93,30.27,5.0,North,8.1,-,N/A,,Clear,10,2013-02-07 12:15:00
7:35 AM,41.0,37.4,87,30.28,5.0,North,8.1,-,N/A,,Clear,10,2013-02-07 12:35:00
7:55 AM,42.8,39.2,87,30.28,5.0,North,11.5,-,N/A,,Clear,10,2013-02-07 12:55:00
8:15 AM,42.8,39.2,87,30.28,6.0,NNE,12.7,16.1,N/A,,Clear,20,2013-02-07 13:15:00
8:35 AM,44.6,39.2,81,30.28,7.0,NNE,12.7,-,N/A,,Clear,20,2013-02-07 13:35:00
8:55 AM,44.6,41.0,87,30.28,7.0,NNE,13.8,-,N/A,,Clear,20,2013-02-07 13:55:00
9:15 AM,46.4,41.0,81,30.29,8.0,NNE,13.8,17.3,N/A,,Clear,20,2013-02-07 14:15:00
9:35 AM,46.4,41.0,81,30.29,9.0,NNE,11.5,-,N/A,,Clear,20,2013-02-07 14:35:00
9:55 AM,48.2,42.8,82,30.29,10.0,NNE,13.8,-,N/A,,Clear,20,2013-02-07 14:55:00
10:15 AM,50.0,42.8,76,30.28,10.0,NE,15.0,-,N/A,,Clear,40,2013-02-07 15:15:00
10:35 AM,51.8,42.8,71,30.28,10.0,NE,12.7,-,N/A,,Clear,40,2013-02-07 15:35:00
10:55 AM,53.6,42.8,67,30.28,10.0,NE,16.1,-,N/A,,Clear,40,2013-02-07 15:55:00
11:15 AM,55.4,44.6,67,30.26,10.0,NNE,13.8,-,N/A,,Clear,30,2013-02-07 16:15:00
11:35 AM,57.2,44.6,63,30.25,10.0,NE,16.1,21.9,N/A,,Clear,40,2013-02-07 16:35:00
11:55 AM,59.0,44.6,59,30.23,10.0,NE,16.1,-,N/A,,Clear,40,2013-02-07 16:55:00
12:15 PM,60.8,46.4,59,30.22,10.0,ENE,13.8,19.6,N/A,,Clear,60,2013-02-07 17:15:00
12:35 PM,60.8,46.4,59,30.21,10.0,ENE,17.3,23.0,N/A,,Clear,70,2013-02-07 17:35:00
12:55 PM,60.8,46.4,59,30.20,10.0,NE,17.3,23.0,N/A,,Clear,50,2013-02-07 17:55:00
1:15 PM,60.8,46.4,59,30.20,10.0,NE,17.3,23.0,N/A,,Partly Cloudy,50,2013-02-07 18:15:00
1:35 PM,60.8,46.4,59,30.18,10.0,NE,15.0,20.7,N/A,,Clear,50,2013-02-07 18:35:00
1:55 PM,59.0,46.4,63,30.18,10.0,NE,13.8,21.9,N/A,,Clear,50,2013-02-07 18:55:00
2:15 PM,59.0,46.4,63,30.16,10.0,NE,17.3,-,N/A,,Partly Cloudy,50,2013-02-07 19:15:00
2:35 PM,57.2,46.4,67,30.16,10.0,ENE,13.8,24.2,N/A,,Partly Cloudy,60,2013-02-07 19:35:00
2:55 PM,57.2,46.4,67,30.16,10.0,ENE,19.6,25.3,N/A,,Mostly Cloudy,60,2013-02-07 19:55:00
3:15 PM,55.4,48.2,77,30.15,6.0,ENE,11.5,-,N/A,,Overcast,60,2013-02-07 20:15:00
3:35 PM,53.6,48.2,82,30.15,6.0,NE,13.8,18.4,0.03,,Overcast,40,2013-02-07 20:35:00
3:55 PM,53.6,48.2,82,30.14,7.0,NNE,15.0,-,0.05,,Overcast,30,2013-02-07 20:55:00
4:15 PM,53.6,48.2,82,30.13,5.0,NNE,16.1,-,0.03,,Overcast,30,2013-02-07 21:15:00
4:35 PM,51.8,48.2,88,30.14,7.0,NE,13.8,21.9,0.06,,Overcast,40,2013-02-07 21:35:00
4:55 PM,51.8,48.2,88,30.12,5.0,NNE,19.6,-,0.07,,Mostly Cloudy,30,2013-02-07 21:55:00
5:15 PM,51.8,48.2,88,30.13,5.0,NE,18.4,-,0.04,,Overcast,40,2013-02-07 22:15:00
5:35 PM,51.8,48.2,88,30.12,4.0,NE,18.4,27.6,0.09,,Overcast,40,2013-02-07 22:35:00
5:55 PM,51.8,48.2,88,30.12,5.0,NNE,16.1,23.0,0.16,,Overcast,30,2013-02-07 22:55:00
6:15 PM,51.8,48.2,88,30.11,7.0,NNE,16.1,-,0.07,,Overcast,30,2013-02-07 23:15:00
6:35 PM,51.8,48.2,88,30.11,6.0,NNE,19.6,-,0.13,,Overcast,30,2013-02-07 23:35:00
6:55 PM,50.0,48.2,94,30.10,6.0,NE,17.3,21.9,0.19,,Overcast,40,2013-02-07 23:55:00
7:15 PM,50.0,48.2,94,30.08,7.0,NNE,17.3,24.2,0.08,,Overcast,30,2013-02-08 00:15:00
7:35 PM,50.0,48.2,94,30.06,7.0,NNE,19.6,26.5,0.15,,Overcast,30,2013-02-08 00:35:00
7:55 PM,50.0,48.2,94,30.05,6.0,NE,19.6,26.5,0.22,,Overcast,40,2013-02-08 00:55:00
8:15 PM,50.0,48.2,94,30.05,7.0,NE,20.7,25.3,0.08,,Overcast,40,2013-02-08 01:15:00
8:35 PM,50.0,48.2,94,30.04,7.0,NE,17.3,24.2,0.14,,Overcast,40,2013-02-08 01:35:00
8:55 PM,50.0,48.2,94,30.06,8.0,NNE,10.4,-,0.21,,Overcast,20,2013-02-08 01:55:00
9:15 PM,50.0,48.2,94,30.04,6.0,NE,20.7,25.3,0.12,,Overcast,40,2013-02-08 02:15:00
9:35 PM,50.0,48.2,94,30.00,6.0,NNE,19.6,26.5,0.19,,Overcast,30,2013-02-08 02:35:00
9:55 PM,50.0,48.2,94,29.99,7.0,NE,20.7,-,0.27,,Overcast,40,2013-02-08 02:55:00
10:15 PM,50.0,48.2,94,29.98,8.0,NNE,17.3,-,0.06,,Overcast,30,2013-02-08 03:15:00
10:35 PM,51.8,48.2,88,29.97,7.0,NE,19.6,25.3,0.14,,Overcast,50,2013-02-08 03:35:00
10:55 PM,51.8,48.2,88,29.95,8.0,NE,21.9,-,0.20,,Overcast,50,2013-02-08 03:55:00
11:15 PM,51.8,48.2,88,29.92,7.0,ENE,23.0,27.6,0.06,,Overcast,60,2013-02-08 04:15:00
11:35 PM,51.8,48.2,88,29.90,7.0,NE,24.2,31.1,0.13,,Overcast,50,2013-02-08 04:35:00
11:55 PM,51.8,48.2,88,29.87,9.0,ENE,20.7,28.8,0.16,,Overcast,60,2013-02-08 04:55:00